CW2377 Weather Reports


Display with metric or nautical units.
time (UTC)temp
F
wind
direction
speed
MPH
gust
MPH
rain 1hr
in
rain 24hr
in
rain mn
in
humidity
%
barometer
mb
20260509192203 74 21 1.0 5.0 0.00 0.00 0.00 32 1003.2
20260509191705 75 0 1.0 5.0 0.00 0.00 0.00 29 1003.2
20260509191203 77 17 1.0 3.0 0.00 0.00 0.00 28 1003.1
20260509190704 76 6 1.0 5.0 0.00 0.00 0.00 28 1003.1
20260509190204 76 6 0.0 0.0 0.00 0.00 0.00 29 1003.0
20260509185704 75 6 0.0 6.0 0.00 0.00 0.00 29 1003.1
20260509185204 75 21 0.0 18.0 0.00 0.00 0.00 29 1002.9
20260509184704 76 219 0.0 13.0 0.00 0.00 0.00 29 1002.8
20260509184204 76 217 0.0 2.0 0.00 0.00 0.00 28 1002.8
20260509183703 75 201 1.0 15.0 0.00 0.00 0.00 29 1002.7
20260509182203 73 11 0.0 0.0 0.00 0.00 0.00 37 1002.9
20260509181703 71 11 0.0 0.0 0.00 0.00 0.00 37 1003.0
20260509181203 70 11 0.0 0.0 0.00 0.00 0.00 40 1003.0
20260509175705 69 11 0.0 0.0 0.00 0.00 0.00 36 1003.2
20260509175204 69 11 0.0 0.0 0.00 0.00 0.00 35 1003.3
20260509174704 70 11 0.0 0.0 0.00 0.00 0.00 36 1003.3
20260509174204 70 11 0.0 0.0 0.00 0.00 0.00 35 1003.2
20260509173703 71 11 0.0 0.0 0.00 0.00 0.00 36 1003.2
20260509172703 70 11 0.0 0.0 0.00 0.00 0.00 36 1003.4
20260509172203 70 11 0.0 0.0 0.00 0.00 0.00 35 1003.5
20260509170703 70 11 0.0 0.0 0.00 0.00 0.00 35 1003.5
20260509170204 71 11 0.0 0.0 0.00 0.00 0.00 35 1003.5
20260509165204 72 11 0.0 0.0 0.00 0.00 0.00 36 1003.5
20260509164704 71 11 0.0 0.0 0.00 0.00 0.00 38 1003.5
20260509164204 70 11 0.0 3.0 0.00 0.00 0.00 40 1003.5
20260509163203 70 44 0.0 0.0 0.00 0.00 0.00 40 1003.5
20260509162204 69 44 0.0 0.0 0.00 0.00 0.00 44 1003.4
20260509161704 69 44 0.0 0.0 0.00 0.00 0.00 44 1003.4
20260509160704 69 44 0.0 0.0 0.00 0.00 0.00 47 1003.4
20260509160203 68 44 0.0 0.0 0.00 0.00 0.00 48 1003.4
20260509155704 68 44 0.0 0.0 0.00 0.00 0.00 48 1003.4
20260509155204 68 44 0.0 0.0 0.00 0.00 0.00 47 1003.3
20260509154704 68 44 0.0 0.0 0.00 0.00 0.00 48 1003.4
20260509154204 69 44 0.0 0.0 0.00 0.00 0.00 46 1003.4
20260509153703 69 44 0.0 0.0 0.00 0.00 0.00 47 1003.4
20260509153204 70 44 0.0 0.0 0.00 0.00 0.00 47 1003.3
20260509152703 70 44 0.0 0.0 0.00 0.00 0.00 48 1003.2
20260509152203 70 44 0.0 0.0 0.00 0.00 0.00 49 1003.3
20260509151704 70 44 0.0 0.0 0.00 0.00 0.00 48 1003.3
20260509151204 69 44 0.0 0.0 0.00 0.00 0.00 50 1003.2
20260509150704 69 44 0.0 0.0 0.00 0.00 0.00 51 1003.3
20260509150204 68 44 0.0 0.0 0.00 0.00 0.00 52 1003.3
20260509145704 68 44 0.0 0.0 0.00 0.00 0.00 52 1003.2
20260509145204 68 44 0.0 0.0 0.00 0.00 0.00 53 1003.2
20260509144704 67 44 0.0 0.0 0.00 0.00 0.00 58 1003.0
20260509143704 66 44 0.0 0.0 0.00 0.00 0.00 57 1003.0
20260509143204 66 44 0.0 0.0 0.00 0.00 0.00 57 1003.1
20260509142203 65 44 0.0 0.0 0.00 0.00 0.00 57 1003.1
20260509141703 65 44 0.0 0.0 0.00 0.00 0.00 60 1003.0
20260509141204 65 44 0.0 0.0 0.00 0.00 0.00 61 1001.5
20260509140703 64 44 0.0 0.0 0.00 0.00 0.00 62 1002.9
20260509140203 64 44 0.0 0.0 0.00 0.00 0.00 64 1002.9
20260509135704 63 44 0.0 0.0 0.00 0.00 0.00 65 1003.1
20260509135204 62 44 0.0 0.0 0.00 0.00 0.00 67 1002.9
20260509134704 62 44 0.0 0.0 0.00 0.00 0.00 66 1002.9
20260509134204 62 44 0.0 0.0 0.00 0.00 0.00 68 1002.8
20260509133705 61 44 0.0 0.0 0.00 0.00 0.00 69 1002.8
20260509133203 61 44 0.0 0.0 0.00 0.00 0.00 70 1002.7
20260509132703 60 44 0.0 0.0 0.00 0.00 0.00 72 1002.6
20260509132204 60 44 0.0 0.0 0.00 0.00 0.00 74 1002.6
20260509131203 59 44 0.0 0.0 0.00 0.00 0.00 75 1002.5
20260509130703 59 44 0.0 0.0 0.00 0.00 0.00 76 1002.8
20260509130203 58 44 0.0 0.0 0.00 0.00 0.00 78 1003.0
20260509125703 58 44 0.0 0.0 0.00 0.00 0.00 78 1003.1
20260509125203 58 44 0.0 0.0 0.00 0.00 0.00 79 1003.0
20260509124703 57 44 0.0 0.0 0.00 0.00 0.00 81 1003.0
20260509124203 57 44 0.0 0.0 0.00 0.00 0.00 81 1003.0
20260509123704 56 44 0.0 0.0 0.00 0.00 0.00 82 1003.0
20260509123203 56 44 0.0 0.0 0.00 0.00 0.00 82 1003.0
20260509122704 56 44 0.0 0.0 0.00 0.00 0.00 84 1002.9
20260509122204 55 44 0.0 0.0 0.00 0.00 0.00 84 1002.8
20260509121704 55 44 0.0 0.0 0.00 0.00 0.00 84 1002.8
20260509121203 55 44 0.0 0.0 0.00 0.00 0.00 85 1002.8
20260509120703 54 44 0.0 0.0 0.00 0.00 0.00 86 1002.7
20260509120203 54 44 0.0 0.0 0.00 0.00 0.00 86 1002.8
20260509115704 54 44 0.0 0.0 0.00 0.00 0.00 87 1002.6
20260509115203 54 44 0.0 0.0 0.00 0.00 0.00 87 1002.8
20260509114703 54 44 0.0 0.0 0.00 0.00 0.00 88 1002.6
20260509114203 53 44 0.0 0.0 0.00 0.00 0.00 88 1002.5
20260509113703 53 44 0.0 0.0 0.00 0.00 0.00 88 1002.4
20260509113204 53 44 0.0 0.0 0.00 0.00 0.00 88 1002.4
20260509112703 54 44 0.0 0.0 0.00 0.00 0.00 88 1002.3
20260509112204 54 44 0.0 0.0 0.00 0.00 0.00 88 1002.3
20260509111704 54 44 0.0 0.0 0.00 0.00 0.00 87 1002.2
20260509111203 54 44 0.0 0.0 0.00 0.00 0.00 87 1002.0
20260509110703 54 44 0.0 0.0 0.00 0.00 0.00 88 1001.9
20260509110203 54 44 0.0 0.0 0.00 0.00 0.00 88 1001.8
20260509105703 54 44 0.0 0.0 0.00 0.00 0.00 88 1001.9
20260509104704 54 44 0.0 0.0 0.00 0.00 0.00 87 1002.0
20260509104203 54 44 0.0 0.0 0.00 0.00 0.00 88 1001.8
20260509103704 54 44 0.0 0.0 0.00 0.00 0.00 88 1002.0
20260509103204 54 44 0.0 0.0 0.00 0.00 0.00 88 1002.0
20260509102703 54 44 0.0 0.0 0.00 0.00 0.00 88 1002.0
20260509101703 54 44 0.0 0.0 0.00 0.00 0.00 87 1002.3
20260509101203 54 44 0.0 0.0 0.00 0.00 0.00 88 1002.1
20260509095703 54 44 0.0 0.0 0.00 0.00 0.00 88 1001.9
20260509095203 54 44 0.0 0.0 0.00 0.00 0.00 88 1001.9
20260509094703 54 44 0.0 0.0 0.00 0.00 0.00 88 1002.0
20260509094203 54 44 0.0 0.0 0.00 0.00 0.00 88 1002.0
20260509093704 54 44 0.0 0.0 0.00 0.00 0.00 88 1002.0
20260509093204 54 44 0.0 0.0 0.00 0.00 0.00 88 1002.1
20260509092704 54 44 0.0 0.0 0.00 0.00 0.00 88 1002.1
20260509092204 54 44 0.0 0.0 0.00 0.00 0.00 88 1002.2
20260509091704 54 44 0.0 0.0 0.00 0.00 0.00 88 1002.3
20260509090703 54 44 0.0 0.0 0.00 0.00 0.00 89 1002.4
20260509090203 54 44 0.0 0.0 0.00 0.00 0.00 88 1002.6
20260509085203 54 44 0.0 0.0 0.00 0.00 0.00 88 1002.6
20260509083203 54 44 0.0 0.0 0.00 0.00 0.00 87 1002.5
20260509081703 54 44 0.0 0.0 0.00 0.00 0.00 87 1002.6
20260509081205 54 44 0.0 0.0 0.00 0.00 0.00 86 1002.6
20260509080703 54 44 0.0 0.0 0.00 0.00 0.00 86 1002.6
20260509080203 54 44 0.0 0.0 0.00 0.00 0.00 86 1002.8
20260509075703 54 44 0.0 0.0 0.00 0.00 0.00 86 1002.8
20260509075203 54 44 0.0 0.0 0.00 0.00 0.00 86 1002.7
20260509074704 54 44 0.0 0.0 0.00 0.00 0.00 86 1002.8
20260509074204 54 44 0.0 0.0 0.00 0.00 0.00 86 1002.8
20260509073704 54 44 0.0 0.0 0.00 0.00 0.00 86 1002.8
20260509073204 55 44 0.0 0.0 0.00 0.00 0.00 85 1002.8
20260509072703 55 44 0.0 0.0 0.00 0.00 0.00 85 1002.9
20260509071703 54 44 0.0 0.0 0.00 0.00 0.00 85 1003.1
20260509071203 55 6 0.0 8.0 0.00 0.00 0.00 85 1003.2
20260509065704 55 0 0.0 0.0 0.00 0.00 0.00 84 1003.5
20260509065204 55 0 0.0 0.0 0.00 0.00 0.00 84 1003.5
20260509064704 55 0 0.0 0.0 0.00 0.00 0.00 84 1003.5
20260509064204 55 0 0.0 0.0 0.00 0.00 0.00 84 1003.6
20260509063704 55 0 0.0 0.0 0.00 0.00 0.00 85 1003.8
20260509063203 55 0 0.0 0.0 0.00 0.00 0.00 85 1003.9
20260509062703 55 0 0.0 0.0 0.00 0.00 0.00 85 1003.9
20260509062203 55 0 0.0 0.0 0.00 0.00 0.00 85 1004.0
20260509061704 55 0 0.0 0.0 0.00 0.00 0.00 85 1004.0
20260509061204 55 0 0.0 0.0 0.00 0.00 0.00 86 1004.0
20260509060703 55 0 0.0 0.0 0.00 0.00 0.00 85 1004.1
20260509055703 55 0 0.0 0.0 0.00 0.00 0.00 84 1004.2
20260509054704 56 0 0.0 0.0 0.00 0.00 0.00 83 1004.1
20260509054209 56 0 0.0 0.0 0.00 0.00 0.00 82 1004.2
20260509053703 56 0 0.0 0.0 0.00 0.00 0.00 82 1004.3
20260509052703 56 0 0.0 0.0 0.00 0.00 0.00 81 1004.3
20260509051704 56 0 0.0 0.0 0.00 0.00 0.00 80 1004.3
20260509051204 56 0 0.0 0.0 0.00 0.00 0.00 79 1004.3
20260509050703 56 0 0.0 0.0 0.00 0.00 0.00 77 1004.3
20260509050203 56 0 0.0 0.0 0.00 0.00 0.00 78 1004.2
20260509045703 56 0 0.0 0.0 0.00 0.00 0.00 77 1004.2
20260509045203 57 0 0.0 0.0 0.00 0.00 0.00 77 1004.2
20260509043704 57 0 0.0 0.0 0.00 0.00 0.00 75 1004.2
20260509043204 57 0 0.0 0.0 0.00 0.00 0.00 74 1004.2
20260509042703 57 0 0.0 0.0 0.00 0.00 0.00 75 1004.0
20260509042203 57 0 0.0 0.0 0.00 0.00 0.00 74 1004.1
20260509041704 56 0 0.0 0.0 0.00 0.00 0.00 74 1004.1
20260509041203 56 0 0.0 0.0 0.00 0.00 0.00 73 1004.3
20260509040704 56 0 0.0 0.0 0.00 0.00 0.00 73 1004.3
20260509040204 56 0 0.0 0.0 0.00 0.00 0.00 72 1004.3
20260509035704 56 0 0.0 0.0 0.00 0.00 0.00 73 1004.3
20260509035204 56 0 0.0 0.0 0.00 0.00 0.00 73 1004.3
20260509034703 56 0 0.0 0.0 0.00 0.00 0.00 72 1004.3
20260509034204 56 0 0.0 0.0 0.00 0.00 0.00 72 1004.4
20260509033704 56 0 0.0 0.0 0.00 0.00 0.00 73 1004.4
20260509033204 56 0 0.0 0.0 0.00 0.00 0.00 72 1004.4
20260509032703 56 0 0.0 0.0 0.00 0.00 0.00 72 1004.5
20260509032204 56 0 0.0 0.0 0.00 0.00 0.00 73 1004.5
20260509031704 56 0 0.0 0.0 0.00 0.00 0.00 73 1004.5
20260509031204 56 0 0.0 0.0 0.00 0.00 0.00 73 1004.5
20260509030204 56 0 0.0 0.0 0.00 0.00 0.00 72 1004.6
20260509024703 57 0 0.0 0.0 0.00 0.00 0.00 71 1004.6
20260509023704 57 0 0.0 0.0 0.00 0.00 0.00 71 1004.7
20260509023203 57 0 0.0 0.0 0.00 0.00 0.00 70 1004.7
20260509022704 57 0 0.0 0.0 0.00 0.00 0.00 71 1004.7
20260509022204 57 0 0.0 0.0 0.00 0.00 0.00 70 1004.7
20260509021204 57 0 0.0 0.0 0.00 0.00 0.00 69 1004.7
20260509020704 57 0 0.0 0.0 0.00 0.00 0.00 70 1004.7
20260509020204 57 0 0.0 0.0 0.00 0.00 0.00 69 1004.7
20260509015204 57 0 0.0 0.0 0.00 0.00 0.00 69 1004.7
20260509014704 58 0 0.0 0.0 0.00 0.00 0.00 69 1004.7
20260509014204 58 0 0.0 0.0 0.00 0.00 0.00 68 1004.7
20260509013203 58 0 0.0 0.0 0.00 0.00 0.00 65 1004.7
20260509012203 59 0 0.0 0.0 0.00 0.00 0.00 1004.8
20260509011704 58 0 0.0 0.0 0.00 0.00 0.00 1004.8
20260509011203 59 0 0.0 0.0 0.00 0.00 0.00 1004.7
20260509010703 59 0 0.0 0.0 0.00 0.00 0.00 1004.7
20260509010204 59 0 0.0 0.0 0.00 0.00 0.00 1004.7
20260509005204 59 0 0.0 0.0 0.00 0.00 0.00 1004.7
20260509004704 59 0 0.0 0.0 0.00 0.00 0.00 1004.6
20260509004204 60 0 0.0 0.0 0.00 0.00 0.00 1004.6
20260509003704 60 0 0.0 0.0 0.00 0.00 0.00 1004.6
20260509003204 60 0 0.0 0.0 0.00 0.00 0.00 1004.6
20260509002705 60 0 0.0 0.0 0.00 0.00 0.00 1004.6
20260509002203 60 0 0.0 0.0 0.00 0.00 0.00 1004.7
20260509001204 60 0 0.0 0.0 0.00 0.00 0.00 1004.7
20260509000703 61 0 0.0 0.0 0.00 0.00 0.00 1004.8
20260509000204 61 0 0.0 0.0 0.00 0.00 0.00 1004.8
20260508235704 61 0 0.0 0.0 0.00 0.00 0.00 1004.8
20260508235204 61 0 0.0 0.0 0.00 0.00 0.00 1004.9
20260508234703 62 0 0.0 0.0 0.00 0.00 0.00 1004.9
20260508234203 62 0 0.0 0.0 0.00 0.00 0.00 1005.0
20260508233704 61 0 0.0 0.0 0.00 0.00 0.00 1005.0
20260508233204 62 0 0.0 0.0 0.00 0.00 0.00 1005.0
20260508232705 62 0 0.0 0.0 0.00 0.00 0.00 1005.0
20260508232204 62 0 0.0 0.0 0.00 0.00 0.00 1005.0
20260508231704 62 0 0.0 0.0 0.00 0.00 0.00 1005.1
20260508230704 62 0 0.0 0.0 0.00 0.00 0.00 1005.1
20260508230204 62 0 0.0 0.0 0.00 0.00 0.00 1005.1
20260508225704 62 0 0.0 0.0 0.00 0.00 0.00 1005.1
20260508225203 61 0 0.0 0.0 0.00 0.00 0.00 1005.1
20260508224704 62 0 0.0 0.0 0.00 0.00 0.00 1005.2
20260508223204 63 0 0.0 0.0 0.00 0.00 0.00 1005.2
20260508222704 63 0 0.0 0.0 0.00 0.00 0.00 1005.1
20260508222204 63 0 0.0 0.0 0.00 0.00 0.00 1005.2
20260508221203 63 0 0.0 0.0 0.00 0.00 0.00 1005.2
20260508220703 62 0 0.0 0.0 0.00 0.00 0.00 1005.3
20260508220203 63 0 0.0 0.0 0.00 0.00 0.00 1005.3
20260508215703 63 0 0.0 0.0 0.00 0.00 0.00 1005.4
20260508215204 63 0 0.0 0.0 0.00 0.00 0.00 1005.5
20260508214704 63 0 0.0 0.0 0.00 0.00 0.00 1005.4
20260508213203 63 0 0.0 0.0 0.00 0.00 0.00 1005.5
20260508212703 64 0 0.0 0.0 0.00 0.00 0.00 1005.5
20260508212204 63 0 0.0 0.0 0.00 0.00 0.00 1005.6
20260508211703 63 0 0.0 0.0 0.00 0.00 0.00 1005.6
20260508211204 64 0 0.0 0.0 0.00 0.00 0.00 1005.7
20260508210704 64 0 0.0 0.0 0.00 0.00 0.00 1005.7
20260508205704 65 0 0.0 0.0 0.00 0.00 0.00 1005.8
20260508205204 32 0 0.0 0.0 0.00 0.00 0.00 1005.8
20260508204704 32 0 0.0 0.0 0.00 0.00 0.00 100
20260508203204 32 0 0.0 0.0 0.00 0.00 0.00 100
20260508202704 32 0 0.0 0.0 0.00 0.00 0.00 100
20260508202204 32 0 0.0 0.0 0.00 0.00 0.00 100
20260508201704 32 0 0.0 0.0 0.00 0.00 0.00 100
20260508201203 32 0 0.0 0.0 0.00 0.00 0.00 100
20260508200704 32 0 0.0 0.0 0.00 0.00 0.00 100
20260508200205 32 0 0.0 0.0 0.00 0.00 0.00 100
20260508195703 32 0 0.0 0.0 0.00 0.00 0.00 100
20260508195204 32 0 0.0 0.0 0.00 0.00 0.00 100
20260508194703 32 0 0.0 0.0 0.00 0.00 0.00 100
20260508194204 32 0 0.0 0.0 0.00 0.00 0.00 100
20260508193705 32 0 0.0 0.0 0.00 0.00 0.00 100
20260508193203 32 0 0.0 0.0 0.00 0.00 0.00 100
20260508192703 32 0 0.0 0.0 0.00 0.00 0.00 100